This demonstration page uses our WeatherBlox Daily Observations layout. Learn more.

Left ArrowRight Arrow

39.01783, -85.05884

Hourly Observations for December 6, 2020

Temp ( °F °C ) Dew Point ( °F °C ) Humidity (%) Winds ( mph kmh ) Pressure ( in mb ) Visibility ( mi km ) Precip ( " mm )
12:52 am 00:52 Mostly Clear 30 -1.1 23 -5 75 75 NE 5 7 30.09 1019 10 16 N/A
1:52 am 01:52 Mostly Cloudy 31 -0.6 24 -4.4 76 76 ENE 7 11 30.07 1018 10 16 N/A
2:52 am 02:52 Mostly Clear 29 -1.7 23 -5 78 78 ENE 5 7 30.06 1018 10 16 N/A
3:52 am 03:52 Clear 29 -1.7 24 -4.4 82 82 NE 6 9 30.05 1018 10 16 N/A
4:52 am 04:52 Clear 27 -2.8 22 -5.6 81 81 N 7 11 30.05 1018 10 16 N/A
5:52 am 05:52 Partly Cloudy 29 -1.7 24 -4.4 82 82 NE 8 13 30.04 1017 10 16 N/A
6:52 am 06:52 Mostly Cloudy 27 -2.8 23 -5 85 85 NNE 5 7 30.05 1018 10 16 N/A
7:44 am 07:44 Mostly Cloudy 28 -2.2 24 -4.4 85 85 NNE 5 7 30.07 1018 10 16 N/A
7:52 am 07:52 Mostly Cloudy 28 -2.2 24 -4.4 85 85 NNE 5 7 30.04 1017 10 16 N/A
8:52 am 08:52 Cloudy 30 -1.1 25 -3.9 82 82 NNE 6 9 30.05 1018 10 16 N/A
9:52 am 09:52 Cloudy 32 undefined 27 -2.8 82 82 NE 7 11 30.04 1017 10 16 N/A
10:41 am 10:41 Mostly Sunny 35 1.7 27 -2.8 72 72 NE 8 13 30.07 1018 10 16 N/A
10:52 am 10:52 Mostly Sunny 35 1.7 27 -2.8 72 72 NE 7 11 30.04 1017 10 16 N/A
11:52 am 11:52 Mostly Cloudy 37 2.8 28 -2.2 70 70 NE 6 9 30.02 1017 10 16 N/A
12:52 pm 12:52 Mostly Cloudy 38 3.3 28 -2.2 68 68 VRB 6 9 29.99 1016 10 16 N/A
1:52 pm 13:52 Cloudy 39 3.9 29 -1.7 67 67 NE 6 9 29.98 1015 10 16 N/A
2:52 pm 14:52 Cloudy 40 4.4 29 -1.7 65 65 NE 8 13 29.96 1015 10 16 N/A
3:52 pm 15:52 Cloudy 39 3.9 29 -1.7 67 67 ENE 7 11 29.96 1015 10 16 N/A
4:52 pm 16:52 Cloudy 39 3.9 29 -1.7 67 67 ENE 7 11 29.97 1015 10 16 N/A
5:43 pm 17:43 Cloudy 39 3.9 29 -1.7 67 67 NNE 9 15 29.99 1016 10 16 N/A
5:52 pm 17:52 Cloudy 38 3.3 29 -1.7 70 70 NNE 7 11 29.97 1015 10 16 N/A
6:52 pm 18:52 Cloudy 38 3.3 29 -1.7 70 70 N 9 15 29.99 1016 10 16 N/A
7:52 pm 19:52 Cloudy with Light Rain 37 2.8 29 -1.7 73 73 N 9 15 29.99 1016 10 16 0.00 0.00
8:52 pm 20:52 Cloudy 37 2.8 28 -2.2 70 70 NNE 9 15 29.96 1015 10 16 0.00 0.00
9:52 pm 21:52 Cloudy 36 2.2 27 -2.8 70 70 E 13 20 29.92 1013 10 16 N/A
10:52 pm 22:52 Cloudy 35 1.7 27 -2.8 72 72 N 7 11 29.93 1014 10 16 N/A
11:52 pm 23:52 Cloudy 35 1.7 27 -2.8 72 72 N 9 15 29.95 1014 10 16 N/A

Powered by AerisWeather